Voltar ao catálogo

COSMOS 1275 DEB

AtivoPO
NORAD 42193·DEBRIS·🇷🇺 Russia

Lançado Jun 4, 1981 de Plesetsk Cosmodrome

Loading…

Próximas Passagens (próximas 24 horas)

TLE

AtualizadoSource: Space-Track

Época: Sep 13, 2026, 17:42 UTC

1 42193U 81053TH  26256.73776934  .00000930  00000-0  10133-2 0  9995
2 42193  82.9600 169.7758 0127675  75.7031 285.8259 13.68230392626875

Acompanhe COSMOS 1275 DEB em tempo real com AllMySat

Download on the App Store